Flag for Estonia Weather past 2 weeks in Narva, Estonia

Now
34 °F

Low clouds.


Feels Like: 27 °F
Forecast: 31 / 36 °F
Wind: 9 mph from Southeast

Location: Narva

Current Time: Jan 31, 2015 at 6:35:30 PM

Latest Report: Jan 31, 2015 at 5:00 PM


Visibility: 13 mi

Pressure: 29.06 "Hg

Humidity: 93%

Dew point: 32 °F

Location of NarvaLocation

Historic Weather in Narva — Graph

°F

Narva temperature yesterday

Maximum temperature yesterday: 33 °F (at 12:00 PM)
Minimum temperature yesterday: 31 °F (at 6:00 PM)
Average temperature yesterday: 32 °F

Past Weeks' High & Low Weather Summary

 TemperatureHumidityPressure
High38 °F (Jan 17, 12:00 AM)100% (Jan 19, 8:00 PM)30.50 "Hg (Jan 19, 8:00 PM)
Low8 °F (Jan 21, 8:00 PM)72% (Jan 29, 3:00 PM)29.06 "Hg (Jan 31, 4:00 PM)
Average27 °F90%29.91 "Hg
* Reported Jan 16 5:00 PM — Jan 31 5:00 PM, Narva, Weather by CustomWeather, © 2014

Note: Actual official high and low records may vary slightly from our data, if they occured in-between our weather recording intervals... More about our weather records

Advertising

Narva weather history for previous 24 hours

 ConditionsComfort  
Time TempWeatherWind HumidityBarometerVisibility
5:00 PM
Jan 31
34 °FLow clouds.9 mph93%29.06 "Hg12 mi
4:00 PM34 °FLow clouds.8 mph92%29.06 "Hg12 mi
3:00 PM34 °FLow clouds.9 mph91%29.09 "Hg12 mi
2:00 PM34 °FLow clouds.8 mph91%29.12 "Hg12 mi
1:00 PM34 °FLow clouds.8 mph91%29.12 "Hg12 mi
12:00 PM34 °FLow clouds.8 mph89%29.15 "Hg12 mi
11:00 AM34 °FLow clouds.8 mph90%29.15 "Hg12 mi
10:00 AM33 °FLow clouds.7 mph91%29.18 "Hg12 mi
9:00 AM33 °FLow clouds.9 mph91%29.21 "Hg12 mi
8:00 AM33 °FLow clouds.7 mph91%29.21 "Hg12 mi
7:00 AM33 °FLow clouds.7 mph91%29.21 "Hg12 mi
6:00 AM33 °FLow clouds.7 mph89%29.23 "Hg12 mi
4:00 AM33 °FLow clouds.7 mph91%29.23 "Hg12 mi
3:00 AM32 °FLow clouds.6 mph90%29.26 "Hg12 mi
2:00 AM32 °FLow clouds.7 mph90%29.29 "Hg12 mi
1:00 AM32 °FLow clouds.6 mph89%29.29 "Hg12 mi
12:00 AM32 °FOvercast.6 mph87%29.32 "Hg12 mi
10:00 PM
Jan 30
32 °FOvercast.5 mph88%29.32 "Hg12 mi
9:00 PM32 °FOvercast.6 mph87%29.32 "Hg12 mi
8:00 PM32 °FOvercast.6 mph88%29.32 "Hg12 mi
7:00 PM32 °FOvercast.6 mph90%29.32 "Hg12 mi
6:00 PM31 °FPassing clouds.5 mph90%29.32 "Hg12 mi
Weather by CustomWeather, © 2014

See weather overviewHow to use our weather pages